Powrót do katalogu

STARLINK-32776

AktywnyŁącznośćVLEO
NORAD 63032·PAYLOAD·🇺🇸 United States

Wystrzelony Feb 18, 2025 z Cape Canaveral Space Force Station

Loading…

Następne Przeloty (najbliższe 24 godziny)

TLE

ŚwieżeSource: CelesTrak SupGP

Epoka: Sep 15, 2026, 03:08 UTC

1 63032C 25034D   26258.13104167 -.00011438  00000+0 -33799-3 0  2584
2 63032  53.1578  94.7600 0001113  90.4249 119.8553 15.34390573    18

Śledź STARLINK-32776 w czasie rzeczywistym z AllMySat

Download on the App Store